Station NIAN6 - 9063012 - Niagara Intake, NY Image indicating link to RSS feed of recent meteorological observations for station NIAN6


Conditions at NIAN6 as of
(10:48 pm EDT on 05/26/2024)
0248 GMT on 05/27/2024:
     

Click on the graph icon in the table below to see a time series plot of the last five days of that observation.

5-day plot - Atmospheric Pressure Atmospheric Pressure (PRES):1005.7 mb
5-day plot - Air Temperature Air Temperature (ATMP): 19.8 °C
NOS Water Level Observation Network Water Level
Previous observations
TIME
(EDT)
5-day plot - Wind Direction
WDIR
 
5-day plot - Wind Speed
WSPD
m/s
5-day plot - Wind Gust
GST
m/s
5-day plot - Wave Height
WVHT
m
5-day plot - Dominant Wave Period
DPD
sec
5-day plot - Average Wave Period
APD
sec
5-day plot - Mean Wave Direction
MWD
 
5-day plot - Atmospheric Pressure
PRES
mb
5-day plot - Pressure Tendency
PTDY
mb
5-day plot - Air Temperature
ATMP
°C
5-day plot - Water Temperature
WTMP
°C
5-day plot - Dew Point
DEWP
°C
5-day plot - Salinity
SAL
psu
5-day plot - Visibility
VIS
km
5-day plot - Tide (above MLLW)
TIDE
m
2024-05-26 10:42 pm-------1005.8- 19.8-----
2024-05-26 10:36 pm-------1005.9- 19.8-----
2024-05-26 10:30 pm-------1006.0- 19.7-----
2024-05-26 10:24 pm-------1006.1- 19.7-----
2024-05-26 10:18 pm-------1006.2-------
2024-05-26 10:12 pm-------1006.4-------
2024-05-26 10:06 pm-------1006.7-------
2024-05-26 10:00 pm-------1006.7 -2.2------
2024-05-26 09:54 pm-------1006.8-------
2024-05-26 09:48 pm-------1006.7- 19.6-----
2024-05-26 09:42 pm-------1006.8- 19.6-----
2024-05-26 09:36 pm-------1007.0- 19.7-----
2024-05-26 09:30 pm-------1007.2- 19.6-----
2024-05-26 09:24 pm-------1007.3- 19.7-----
2024-05-26 09:18 pm-------1007.4-------
2024-05-26 09:12 pm-------1007.3-------
2024-05-26 09:06 pm-------1007.4-------
2024-05-26 09:00 pm-------1007.4 -2.6------
2024-05-26 08:54 pm-------1007.6-------
2024-05-26 08:48 pm-------1007.7-------
2024-05-26 08:42 pm-------1007.8-------
2024-05-26 08:36 pm-------1007.8-------
2024-05-26 08:30 pm-------1007.7- 20.0-----
2024-05-26 08:24 pm-------1007.7- 20.0-----
2024-05-26 08:18 pm-------1007.8-------
2024-05-26 08:12 pm-------1007.9-------
2024-05-26 08:06 pm-------1007.9-------
2024-05-26 08:00 pm-------1007.9 -2.6------
2024-05-26 07:54 pm-------1007.9-------
2024-05-26 07:48 pm-------1008.0-------
2024-05-26 07:42 pm-------1008.3-------
2024-05-26 07:36 pm-------1008.4-------
2024-05-26 07:30 pm-------1008.4-------
2024-05-26 07:24 pm-------1008.4-------
2024-05-26 07:00 pm-------1008.9 -2.5 20.8-----
2024-05-26 06:54 pm-------1009.1- 20.8-----
2024-05-26 06:48 pm-------1009.3- 21.0-----
2024-05-26 06:42 pm-------1009.4- 21.0-----
2024-05-26 06:36 pm-------1009.4- 21.1-----
2024-05-26 06:30 pm-------1009.5-------
2024-05-26 06:24 pm-------1009.6-------
2024-05-26 06:18 pm-------1009.7- 21.2-----
2024-05-26 06:12 pm-------1009.8- 21.3-----
2024-05-26 06:06 pm-------1010.0- 21.2-----
2024-05-26 06:00 pm-------1010.0 -2.1 21.4-----
2024-05-26 05:54 pm-------1010.0- 21.4-----
2024-05-26 05:48 pm-------1010.1-------
2024-05-26 05:42 pm-------1010.1-------
2024-05-26 05:36 pm-------1010.1-------
2024-05-26 05:30 pm-------1010.1- 21.6-----
2024-05-26 05:24 pm-------1010.2- 21.5-----
2024-05-26 05:18 pm-------1010.3- 21.4-----
2024-05-26 05:12 pm-------1010.2- 21.6-----
2024-05-26 05:06 pm-------1010.3- 21.2-----
2024-05-26 05:00 pm-------1010.5 -2.7 21.5-----
2024-05-26 04:54 pm-------1010.5- 21.6-----
2024-05-26 04:48 pm-------1010.7- 21.5-----
2024-05-26 04:42 pm-------1010.8- 21.5-----
2024-05-26 04:36 pm-------1010.8- 21.1-----
2024-05-26 04:30 pm-------1011.0- 21.6-----
2024-05-26 04:24 pm-------1011.1- 21.5-----
2024-05-26 04:18 pm-------1011.3- 21.4-----
2024-05-26 04:12 pm-------1011.3- 21.4-----
2024-05-26 04:06 pm-------1011.3- 21.6-----
2024-05-26 04:00 pm-------1011.4 -2.2------
2024-05-26 03:54 pm-------1011.6-------
2024-05-26 03:48 pm-------1011.7-------
2024-05-26 03:42 pm-------1011.7-------
2024-05-26 03:36 pm-------1011.9-------
2024-05-26 03:30 pm-------1011.9- 21.7-----
2024-05-26 03:24 pm-------1011.9- 22.2-----
2024-05-26 03:18 pm-------1011.9-------
2024-05-26 03:12 pm-------1012.0-------
2024-05-26 03:06 pm-------1012.0-------
2024-05-26 03:00 pm-------1012.1 -1.7 23.3-----
2024-05-26 02:54 pm-------1012.3- 22.7-----
2024-05-26 02:48 pm-------1012.4- 22.1-----
2024-05-26 02:42 pm-------1012.5- 22.0-----
2024-05-26 02:36 pm-------1012.6- 21.5-----
2024-05-26 02:30 pm-------1012.7- 21.7-----
2024-05-26 02:24 pm-------1012.8- 21.9-----
2024-05-26 02:18 pm-------1012.9- 21.8-----
2024-05-26 02:12 pm-------1013.1- 21.5-----
2024-05-26 02:06 pm-------1013.2- 21.6-----
2024-05-26 02:00 pm-------1013.2 -1.2 21.3-----
2024-05-26 01:54 pm-------1013.2- 20.8-----
2024-05-26 01:48 pm-------1013.2- 21.1-----
2024-05-26 01:42 pm-------1013.3- 21.1-----
2024-05-26 01:36 pm-------1013.4- 21.2-----
2024-05-26 01:30 pm-------1013.5-------
2024-05-26 01:24 pm-------1013.6-------
2024-05-26 01:18 pm-------1013.7- 20.4-----
2024-05-26 01:12 pm-------1013.6- 20.6-----
2024-05-26 01:06 pm-------1013.6- 20.5-----
2024-05-26 01:00 pm-------1013.6 -0.9 20.2-----
2024-05-26 12:54 pm-------1013.6- 20.1-----
2024-05-26 12:48 pm-------1013.6- 19.9-----
2024-05-26 12:42 pm-------1013.6- 19.5-----
2024-05-26 12:36 pm-------1013.7- 19.4-----
2024-05-26 12:30 pm-------1013.7- 19.4-----
2024-05-26 12:24 pm-------1014.0- 19.7-----
2024-05-26 12:18 pm-------1014.0- 19.7-----
2024-05-26 12:12 pm-------1013.9- 18.9-----
2024-05-26 12:06 pm-------1013.8- 19.0-----
2024-05-26 12:00 pm-------1013.8 -0.8 18.6-----
2024-05-26 11:54 am-------1014.0- 18.4-----
2024-05-26 11:48 am-------1014.0- 17.7-----
2024-05-26 11:42 am-------1014.1- 17.4-----
2024-05-26 11:36 am-------1014.1- 17.5-----
2024-05-26 11:30 am-------1014.3- 17.3-----
2024-05-26 11:24 am-------1014.4- 17.3-----
2024-05-26 11:18 am-------1014.5- 17.1-----
2024-05-26 11:12 am-------1014.4- 17.2-----
2024-05-26 11:06 am-------1014.4- 17.1-----
2024-05-26 11:00 am-------1014.4 +0.3 17.1-----
2024-05-26 10:54 am-------1014.5- 16.7-----
2024-05-26 10:48 am-------1014.5- 16.4-----
2024-05-26 10:42 am-------1014.6- 16.3-----
2024-05-26 10:36 am-------1014.4- 16.0-----
2024-05-26 10:30 am-------1014.4- 16.0-----
2024-05-26 10:24 am-------1014.4- 15.8-----
2024-05-26 10:18 am-------1014.3- 15.8-----
2024-05-26 10:12 am-------1014.2- 15.6-----
2024-05-26 10:06 am-------1014.4- 15.4-----
2024-05-26 10:00 am-------1014.5 +0.7 15.3-----
2024-05-26 09:54 am-------1014.6- 15.4-----
2024-05-26 09:48 am-------1014.5- 15.2-----
2024-05-26 09:42 am-------1014.6- 15.2-----
2024-05-26 09:36 am-------1014.7- 15.1-----
2024-05-26 09:30 am-------1014.8-------
2024-05-26 09:24 am-------1014.7-------
2024-05-26 09:18 am-------1014.6-------
2024-05-26 09:12 am-------1014.5-------
2024-05-26 09:06 am-------1014.5-------
2024-05-26 09:00 am-------1014.6 +1.1------
2024-05-26 08:54 am-------1014.6-------
2024-05-26 08:48 am-------1014.5- 15.1-----
2024-05-26 08:42 am-------1014.7- 14.9-----
2024-05-26 08:36 am-------1014.6- 15.0-----
2024-05-26 08:30 am-------1014.4- 14.9-----
2024-05-26 08:24 am-------1014.2- 15.0-----
2024-05-26 08:18 am-------1014.3- 15.1-----
2024-05-26 08:12 am-------1014.0- 14.9-----
2024-05-26 08:06 am-------1014.0- 15.0-----
2024-05-26 08:00 am-------1014.1 +1.3 14.9-----
2024-05-26 07:54 am-------1014.2- 15.0-----
2024-05-26 07:48 am-------1014.1- 15.0-----
2024-05-26 07:42 am-------1014.1- 14.9-----
2024-05-26 07:36 am-------1013.9- 14.9-----
2024-05-26 07:30 am-------1013.9- 14.7-----
2024-05-26 07:24 am-------1014.0- 14.7-----
2024-05-26 07:18 am-------1013.9-------
2024-05-26 07:12 am-------1013.9-------
2024-05-26 07:06 am-------1013.8-------
2024-05-26 07:00 am-------1013.8 +0.7------
2024-05-26 06:54 am-------1013.8-------
2024-05-26 06:48 am-------1013.7-------
2024-05-26 06:42 am-------1013.8-------
2024-05-26 06:36 am-------1014.0-------
2024-05-26 06:30 am-------1014.1- 14.1-----
2024-05-26 06:24 am-------1014.0- 14.0-----
2024-05-26 06:18 am-------1013.9-------
2024-05-26 06:12 am-------1013.8-------
2024-05-26 06:06 am-------1013.6-------
2024-05-26 06:00 am-------1013.5 +0.8 13.9-----
2024-05-26 05:54 am-------1013.6- 13.8-----
2024-05-26 05:48 am-------1013.6- 13.7-----
2024-05-26 05:42 am-------1013.6- 13.7-----
2024-05-26 05:36 am-------1013.4- 13.7-----
2024-05-26 05:30 am-------1013.3- 13.7-----
2024-05-26 05:24 am-------1013.0- 13.8-----
2024-05-26 05:18 am-------1013.1- 13.7-----
2024-05-26 05:12 am-------1013.0- 13.8-----
2024-05-26 05:06 am-------1012.9- 14.0-----
2024-05-26 05:00 am-------1012.8 +0.5 14.0-----
2024-05-26 04:54 am-------1012.9- 14.1-----
2024-05-26 04:48 am-------1012.9-------
2024-05-26 04:42 am-------1012.9-------
2024-05-26 04:36 am-------1013.0-------
2024-05-26 04:30 am-------1012.9- 14.2-----
2024-05-26 04:24 am-------1012.9- 14.3-----
2024-05-26 04:18 am-------1012.8- 14.3-----
2024-05-26 04:12 am-------1012.8- 14.2-----
2024-05-26 04:06 am-------1013.0- 14.3-----
2024-05-26 04:00 am-------1013.1 +1.1 14.4-----
2024-05-26 03:54 am-------1013.1- 14.3-----
2024-05-26 03:48 am-------1013.0- 14.1-----
2024-05-26 03:42 am-------1013.0- 14.0-----
2024-05-26 03:36 am-------1012.9- 14.0-----
2024-05-26 03:30 am-------1012.9- 14.0-----
2024-05-26 03:24 am-------1012.8- 14.0-----
2024-05-26 03:18 am-------1012.8- 14.1-----
2024-05-26 03:12 am-------1012.7- 14.1-----
2024-05-26 03:06 am-------1012.6- 14.2-----
2024-05-26 03:00 am-------1012.7 +0.7 14.1-----
2024-05-26 02:54 am-------1012.6- 14.3-----
2024-05-26 02:48 am-------1012.5- 14.4-----
2024-05-26 02:42 am-------1012.5- 14.7-----
2024-05-26 02:36 am-------1012.4- 14.7-----
2024-05-26 02:30 am-------1012.4- 15.0-----
2024-05-26 02:24 am-------1012.4- 15.1-----
2024-05-26 02:18 am-------1012.4- 15.2-----
2024-05-26 02:12 am-------1012.4- 15.3-----
2024-05-26 02:06 am-------1012.4- 15.3-----
2024-05-26 02:00 am-------1012.3 +0.7 15.3-----
2024-05-26 01:54 am-------1012.3- 15.3-----
2024-05-26 01:48 am-------1012.3- 15.2-----
2024-05-26 01:42 am-------1012.3- 15.2-----
2024-05-26 01:36 am-------1012.3- 15.1-----
2024-05-26 01:30 am-------1012.4- 15.0-----
2024-05-26 01:24 am-------1012.4- 14.8-----
2024-05-26 01:18 am-------1012.4- 15.1-----
2024-05-26 01:12 am-------1012.1- 15.8-----
2024-05-26 01:06 am-------1012.0- 15.8-----
2024-05-26 01:00 am-------1012.0 +1.0 15.9-----
2024-05-26 12:54 am-------1012.0- 15.9-----
2024-05-26 12:48 am-------1012.0- 16.0-----
2024-05-26 12:42 am-------1012.1- 16.0-----
2024-05-26 12:36 am-------1012.0- 16.0-----
2024-05-26 12:30 am-------1012.1- 16.2-----
2024-05-26 12:24 am-------1012.1- 16.1-----
2024-05-26 12:18 am-------1012.1- 16.3-----
2024-05-26 12:12 am-------1012.0- 16.2-----
2024-05-26 12:06 am-------1012.0- 16.3-----
2024-05-26 12:00 am-------1012.0 +1.9 16.3-----
2024-05-25 11:54 pm-------1012.0- 16.3-----
2024-05-25 11:48 pm-------1011.9- 16.4-----
2024-05-25 11:42 pm-------1011.9- 16.3-----
2024-05-25 11:36 pm-------1011.8- 16.4-----
2024-05-25 11:30 pm-------1011.8- 16.4-----
2024-05-25 11:24 pm-------1011.7- 16.4-----
2024-05-25 11:18 pm-------1011.8- 16.3-----
2024-05-25 11:12 pm-------1011.6- 16.4-----
2024-05-25 11:06 pm-------1011.7- 16.4-----
2024-05-25 11:00 pm-------1011.6 +1.6 16.5-----
2024-05-25 10:54 pm-------1011.5- 16.4-----